Regional Weather Roundup
Issued by NWS Grand Forks, ND

Home | Current Version | Previous Version | Graphics & Text | Print | Product List | Glossary On
Versions: 1 2 3 4 5 6 7 8 9 10 11 12 13 14 15 16 17 18 19 20 21 22 23 24 25 26 27 28 29 30 31 32 33 34 35 36 37 38 39 40 41 42 43 44 45 46 47 48 49 50
000
ASUS43 KFGF 282031
RWRFGF
PRAIRIE TO PINES  WEATHER ROUNDUP
NATIONAL WEATHER SERVICE EASTERN NORTH DAKOTA/GRAND FORKS ND
300 PM CDT FRI APR 28 2017

 **SATELLITE DATA USED TO AUGMENT SKY COVER AT AUTOMATED STATIONS**
 *****  WEATHER ACROSS EASTERN NORTH DAKOTA  *****

CITY           SKY/WX    TMP DP  RH WIND       PRES   REMARKS
GRAND FORKS    FAIR      53  27  36 N21G26    30.01R
GRAND FRKS AFB FAIR      51  23  32 N15G23    30.02R
DEVILS LAKE    FAIR      52  13  21 NW18      30.03R
FARGO          FAIR      52  24  33 N18       30.01R
WAHPETON ARPT  FAIR      52  21  30 N14G20    30.01R
$$

 ***** WEATHER ACROSS CENTRAL AND WESTERN NORTH DAKOTA  *****

CITY           SKY/WX    TMP DP  RH WIND       PRES   REMARKS
BISMARCK       FAIR      56  11  16 N15       30.05R
MINOT          FAIR      55  13  18 NW9G20    30.05R
JAMESTOWN      FAIR      53  21  28 N14       30.02R
MINOT AFB      FAIR      53  16  23 NW5       30.04S
GARRISON         N/A     52  13  21 VRB5      30.05R
WILLISTON      FAIR      56  23  27 S6        30.05S
DICKINSON      FAIR      50  19  29 CALM      30.02R
HETTINGER      FAIR      51  25  36 E8        30.03R
$$

 *****  OTHER AIRPORT OBSERVATIONS IN OUR AREA  *****

CITY           SKY/WX    TMP DP  RH WIND       PRES   REMARKS
WALHALLA       NOT AVBL
GRAFTON AIRPOR FAIR      52  19  28 N20G28    30.03R
VALLEY CITY AR FAIR      52  16  24 N17       30.03R
CANDO          NOT AVBL
CAVALIER APRT  FAIR      52  18  25 N18G25    30.01S
GWINNER        CLEAR     52  25  35 MISG      30.02R
SHEYENNE NWR     N/A     52  21  29 N9        29.95S
ROLLA          FAIR      52  12  20 N14G20    30.04S
 ***** THE ABOVE OBSERVATIONS ARE NON NWS ARE NOT QUALITY
       CONTROLLED AND MAY MIS-REPORT RAIN FOR SNOW...
$$

  *****  WEATHER ACROSS NORTHERN MINNESOTA  *****

CITY           SKY/WX    TMP DP  RH WIND       PRES   REMARKS
FLAG ISLAND    FAIR      41  23  48 NW12      29.97R
WARROAD        FAIR      46  18  31 N7        29.99R
ROSEAU         FAIR      48  21  34 NE12      29.99R
HALLOCK        FAIR      54   9  16 N17G24    30.00R
THF RVR FALLS  FAIR      48  17  29 NW18      30.00R
BAUDETTE       FAIR      44  23  43 N13       29.96R
WASKISH        CLOUDY    46  27  46 N14       29.96R
CROOKSTON      FAIR      52  25  35 N17       30.01R
STEPHEN NDAWN    N/A     52  18  25 N16         N/A
GREENBUSH NDAW   N/A     46  25  42 NW12        N/A
$$
  *****  WEATHER ACROSS CENTRAL AND WEST MINNESOTA  *****

CITY           SKY/WX    TMP DP  RH WIND       PRES   REMARKS
FOSSTON        FAIR      48  25  40 N13G20    29.99R
BEMIDJI        FAIR      46  16  30 NW12G21   29.96R
PARK RAPIDS    FAIR      50  12  21 NW15G21   29.94R
ELBOW LAKE     FAIR      48  23  38 W10G16    30.00R
WADENA         FAIR      48  25  40 NW14      29.95R
DETROIT LAKES  FAIR      46  27  46 N14G22    29.99S
MOORHEAD       FAIR      50  25  37 N15G22    30.01S
FERGUS FALLS   FAIR      48  27  43 N12G18    29.98S
MORRIS MN      FAIR      52  25  35 N14G21    29.98R
STAPLES        FAIR      50  12  22 N12       29.94S
$$
  *****  WEATHER ELSEWHERE ACROSS MINNESOTA  *****

CITY           SKY/WX    TMP DP  RH WIND       PRES   REMARKS
DULUTH         PTSUNNY   47  26  44 NW12G17   29.89R
INTRNTL FALLS  CLOUDY    39  25  57 N14       29.95R
ELY            FAIR      39  25  56 NW14      29.90R
CLOQUET        CLOUDY    48  18  29 NW12G24   29.90S
WHEATON        FAIR      50  23  34 N10G20    30.03R
BRAINERD       FAIR      49  19  30 NW8       29.94S
HIBBING        CLOUDY    45  27  49 NW23      29.89R
ALEXANDRIA     FAIR      49  23  36 N14G20    29.97R
SAINT CLOUD    FAIR      48  26  42 VRB7      29.96R
MINNEAPOLIS    PTSUNNY   48  28  46 NW7       29.95R
$$

  *****  WEATHER ACROSS SOUTH DAKOTA  *****

CITY           SKY/WX    TMP DP  RH WIND       PRES   REMARKS
SIOUX FALLS    CLOUDY    48  33  56 NE14      29.95R
BROOKINGS      FAIR      47  27  45 NE18      29.95S
WATERTOWN      FAIR      49  23  36 NE17G28   29.97R
HURON          FAIR      53  25  33 NE23G30   29.97R
SISSETON         N/A     52  24  33 NE15      30.00R
ABERDEEN       FAIR      52  17  25 NE15      30.02R
MITCHELL       FAIR      51  28  41 NE16      29.97R
PIERRE         FAIR      52  24  33 NE18      29.97R
MOBRIDGE       FAIR      56  14  19 NE10      30.00R
RAPID CITY     PTSUNNY   46  27  47 NE14G22   29.99R
$$

  *****  SOME WEATHER IN NEARBY STATES *****

CITY           SKY/WX    TMP DP  RH WIND       PRES   REMARKS
GLASGOW MT     FAIR      55  21  26 W6        30.03R
GREAT FALLS MT LGT RAIN  42  35  76 S6        30.07R
CHEYENNE WY    CLOUDY    35  28  75 NE18G31   29.77R WCI  24
SCOTTSBLUFF NE LGT SNOW  34  30  85 E20       29.90R FOG     WCI  23
OMAHA NE       DRIZZLE   41  36  82 NE12      29.85R
DES MOINES IA  LGT RAIN  42  40  92 NE20      29.84S FOG
DAVENPORT IA   CLOUDY    45  43  93 NE16      29.82F FOG
CHICAGO IL     CLOUDY    57  46  66 E10       29.87F
EAU CLAIRE WI  FAIR      47  27  45 S5        29.93R
LA CROSSE WI   FAIR      49  32  52 CALM      29.94S
$$

  *****  SOME NATIONAL WEATHER *****

CITY           SKY/WX    TMP DP  RH WIND       PRES   REMARKS
LA GUARDIA NY  FAIR      82  57  42 S14       29.97R
RALEIGH NC     PTSUNNY   86  68  54 SW14      30.05F
ATLANTA GA     FAIR      82  65  56 S12       30.04S
NEW ORLEANS LA PTSUNNY   84  74  71 S25G31    29.87F HX  91
OKLAHOMA CITY  PTSUNNY   75  55  49 N8        29.62S
ALBUQUERQUE NM LGT RAIN  41  37  86 NE8       29.79S
SALT LAKE CITY LGT RAIN  42  37  82 NW21G28   29.93S
LOS ANGELES CA FAIR      82  27  13 N18G26    29.77F
BOISE ID       PTSUNNY   54  30  40 NW23G32   30.07S
SEATTLE WA     PTSUNNY   54  38  54 VRB3      30.36S
$$

*** WEATHER ACROSS MANITOBA...SASKATCHEWAN AND ONTARIO ***
                ***ONTARIO***

CITY           SKY/WX    TMP DP  RH WIND       PRES   REMARKS
GERALDTON      FLURRIES  27  19  74 W12G24    29.71R WCI  16
THUNDER BAY    CLOUDY    34  21  60 NW15G21   29.84R WCI  24
SIOUX LOOKOUT  CLOUDY    36  18  48 N12G23    29.88R
TORONTO        MOSUNNY   64  43  45 SW14G22   29.96S
BIG TROUT LK   FLURRIES  32  21  64 N14G28    29.81R WCI  22
PICKLE LAKE    FLURRIES  30  19  64 NW17G26   29.77R WCI  18
DRYDEN         PTSUNNY   37  23  56 NW10G22   29.91R
KENORA         PTSUNNY   43  18  36 NW13G18   29.94R
$$
                *** MANITOBA***

CITY           SKY/WX    TMP DP  RH WIND       PRES   REMARKS
BRANDON        MOSUNNY   54  14  20 NW12G21   30.04S
DAUPHIN        SUNNY     52  12  20 NE13G20   30.06R
ISLAND LAKE    PTSUNNY   39   9  28 NW13      30.00
PILOT MOUND      N/A     52   5  15 N12G17      N/A
THE PAS        MOSUNNY   50   9  18 N6        30.08R
THOMPSON       CLOUDY    45  12  26 N14       30.05R
WINNIPEG       MOSUNNY   52  12  20 N16G23    30.02R
LYNN LAKE      SUNNY     45  16  31 NE8       30.09R
CHURCHILL      CLOUDY    25  21  86 N24G30    30.12R WCI   9
GILLAM         PTSUNNY   41  19  42 N8        30.04R
$$
                ***SASKATCHEWAN***

CITY           SKY/WX    TMP DP  RH WIND       PRES   REMARKS
ESTEVAN        CLOUDY    54  18  24 VRB5      30.06R
KINDERSLEY     PTSUNNY   43  32  65 NW16G24   30.04R
LLOYDMINSTER   PTSUNNY   45  28  53 VRB2      30.05S
PRINCE ALBERT  PTSUNNY   52  12  20 VRB6      30.04S
REGINA         PTSUNNY   57  19  23 SW6G18    30.02R
YORKTON        SUNNY     54  19  26 W6        30.05S
N. BATTLEFORD  CLOUDY    45  28  53 VRB2      30.04R
LA RONGE       MOSUNNY   54  12  19 N7        30.08S
SASKATOON      CLOUDY    46  28  49 E3        30.05R
SWIFT CURRENT  PTSUNNY   41  34  75 W14G23    30.06R
$$
NOTE: THESE ARE AUTOMATED STATIONS WITH LIMITED QUALITY CONTROL
      "FAIR" INDICATES FEW OR NO CLOUDS BELOW 12,000 FEET WITH NO
      SIGNIFICANT WEATHER AND/OR OBSTRUCTIONS TO VISIBILITY.
      SKY/WX - SKY CONDITION AND SIGNIFICANT WEATHER.
      TMP - AIR TEMPERATURE.    DP   - DEWPOINT TEMPERATURE.
      RH  - RELATIVE HUMIDITY.  PRES - PRESSURE.
      HX  - HEAT INDEX.         WCI  - WIND CHILL INDEX.
$



USA.gov is the U.S. government's official web portal to all federal, state and local government web resources and services.